Hauptseite
METAR-TAF:

METAR-TAF

Flughäfen :

Flughafen Mailand-Linate

Mailand, Italien

Breite: 45-26N, Länge: 009-17E, Höhe: 107 m

Beobachtung

Neuester Wetterbericht von vor 24 Minuten, um 09:50 UTC
Wind 3 kt aus West, variierte zwischen Südwest und West/Nordwest
Temperatur 29°C
Luftfeuchtigkeit 52%
Luftdruck 1018 hPa
Sichtweite 10 km oder mehr
keine Wolken unter 1500 m und keine Kumulonimbus oder Gewitterwolken

METAR: LIML 180950Z 26003KT 230V300 CAVOK 29/18 Q1018 NOSIG

Zeit: 12:14 (10:14 UTC)

Prognose

Neuester Wetterbericht von vor 5 Stunden und 14 Minuten, um 05:00 UTC
Gültige Prognose vom 18 um 06 UTC bis 19 um 06 UTC
Wind 5 kt aus unterschiedlichen Richtungen
Sichtweite 10 km oder mehr
keine Wolken unter 1500 m und keine Kumulonimbus oder Gewitterwolken

TAF: LIML 180500Z 1806/1906 VRB05KT CAVOK

Wetterbeobachtungen und Prognosen von mehr als 4000 Flughäfen (METAR und TAF Bericht).

Die verfügbaren Stationen werden durch gelbe und rote Markierungen auf der Karte dargestellt.

Führen Sie die Maus auf sie, um den Namen der Station zu sehen.

Darauf klicken, um die Beobachtung von Wetterbeobachtungen und Prognosen zu sehen.

Um die Karte zu ändern : klicken Sie auf den grünen Tasten mit einem schwarzen Kreuz Zum Vergrößern, auf den grünen Button mit einem Gedankenstrich zu verkleinern, oder auf die grünen Pfeile für benachbarte Karten.


METAR-TAF: